Regional Weather Roundup
Issued by NWS Austin/San Antonio, TX

Current Version | Previous Version | Text Only | Print | Product List | Glossary On
Versions: 1 2 3 4 5 6 7 8 9 10 11 12 13 14 15 16 17 18 19 20 21 22 23 24 25 26 27 28 29 30 31 32 33 34 35 36 37 38 39 40 41 42 43 44 45 46 47 48 49 50
000
ASUS44 KEWX 231910
RWREWX
SOUTH TEXAS REGIONAL WEATHER ROUNDUP
NATIONAL WEATHER SERVICE AUSTIN/SAN ANTONIO TX
200 PM CDT FRI OCT 23 2020

NOTE: "FAIR" INDICATED FEW OR NO CLOUDS BELOW 12,000 FEET WITH NO
SIGNIFICANT WEATHER AND/OR OBSTRUCTIONS TO VISIBILITY.

* - THESE STATIONS ARE NOT NWS OR FAA STATIONS...AND ARE NOT SUBJECT
    TO NWS AND FAA QUALITY CONTROL.

TXZ171-172-183>190-232000-
TEXAS HILL COUNTRY AND EDWARDS PLATEAU

CITY           SKY/WX    TMP DP  RH WIND       PRES   REMARKS
JUNCTION       CLOUDY    65  54  67 N13       30.13F
*LLANO         MIX PCPN  61  59  94 NW15      30.10R FOG
BURNET         CLOUDY    68  62  81 N10G21    30.09F
*HORSESHOE BAY CLOUDY    70  63  78 NW8       30.08S
*LAGO VISTA    CLOUDY    68  66  92 NE8       30.06F
*KERRVILLE     CLOUDY    78  71  78 S3        30.05F
*FREDERICKSBRG CLOUDY    68  62  82 N18G29    30.08S
*ROCKSPRINGS   PTSUNNY   75  64  69 N15G21    30.12S
*BOERNE        CLOUDY    79  68  69 CALM      30.04F
*CASTROVILLE   MOSUNNY   87  67  50 NE5       30.00F HX  90
HONDO          MOSUNNY   83  67  58 CALM      30.00F
*UVALDE        PTSUNNY   78  72  82 E5        30.03F
DEL RIO        CLOUDY    83  70  64 NE7       30.01S
*LAUGHLIN AFB  PTSUNNY   79  70  73 NE5       30.01F
*SPOFFORD      PTSUNNY  N/A N/A N/A NE7       29.95S
*EAGLE PASS    NOT AVBL
CARRIZO SPRGS  PTSUNNY   88  68  51 SE3       29.95S HX  91
*FAITH RANCH   MOSUNNY   91  68  46 CALM      29.95F HX  95
$$

TXZ173-191>194-202-209-217>225-228-232000-
CENTRAL AND SOUTH CENTRAL TEXAS

CITY           SKY/WX    TMP DP  RH WIND       PRES   REMARKS
GEORGETOWN     CLOUDY    71  65  81 N10       30.07S
*TAYLOR        MOSUNNY   76  67  75 N13       30.03R
AUSTIN/BERGSTM PTSUNNY   77  67  71 N14       30.01F
AUSTIN/MABRY   CLOUDY    75  65  70 N8        30.04S
*PFLUGERVILLE  MOSUNNY   77  66  69 N10       30.03F
SAN MARCOS     CLOUDY    84  69  60 N6        30.00F
NEW BRAUNFELS  CLOUDY    85  68  56 CALM      29.98F
*RANDOLPH AFB  PTSUNNY   86  67  53 NE3       29.98F
*SEGUIN        CLOUDY    89  65  46 N6        30.01F HX  90
SAN ANTONIO    PTSUNNY   85  69  58 NE6       30.00F
STINSON FIELD  PTSUNNY   87  67  51 VRB6      29.96F HX  90
*KELLY FIELD   MOSUNNY   86  67  53 CALM      29.97F
*PLEASANTON    MOSUNNY   88  70  55 NE5       29.98F HX  93
*KENEDY        PTSUNNY   88  69  53 N10       29.97F HX  92
*LA GRANGE     CLOUDY    88  72  58 NE5       29.96F HX  95
*GIDDINGS      CLOUDY    75  67  75 NE6G20    30.02F
*GONZALES      CLOUDY    87  69  55 NE3       29.98F HX  91
$$

TXZ163>164-176>182-195>201-210>213-226-227-235-232000-
SOUTHEAST TEXAS

CITY           SKY/WX    TMP DP  RH WIND       PRES   REMARKS
COLLEGE STN    CLOUDY    68  65  90 E8        29.98F
*BRYAN         CLOUDY    66  66 100 E9        29.99F
*CALDWELL      CLOUDY    68 N/A N/A CALM      30.01F
*CROCKETT      NOT AVBL
*BRENHAM       TSTM      69  67  93 NE6       30.03R
HUNTSVILLE     LGT RAIN  69  64  84 CALM      30.04F
CONROE         TSTM      69  64  84 N12G23    30.04R
HOUSTON BUSH   PTSUNNY   90  70  51 W6        29.95F HX  95
HOUSTON HOBBY  MOSUNNY   87  73  62 NW13      29.94F HX  94
*HOUSTON SW AP MOSUNNY   87  72  61 NW5       29.95F HX  93
PEARLAND       MOSUNNY   89  69  51 NE10      29.95F HX  93
HOUSTON HOOKS  MOSUNNY   86  70  58 NW7       29.97F HX  90
ELLINGTON FLD  PTSUNNY   88  72  58 NW2       29.94F HX  94
SUGAR LAND     MOSUNNY   88  72  58 N10       29.94F HX  94
*HOUSTON EXEC  MOSUNNY   86  72  62 N10       29.98F HX  92
*CLEVELAND MUN HVY RAIN  81  65  57 N22G30    30.02R
*WHARTON       SUNNY     87  67  51 N7        29.96F HX  90
*COLUMBUS      NOT AVBL
*EAGLE LAKE    CLOUDY    87  72  59 NW8       29.97F HX  93
$$

TXZ214>216-236>238-232000-
THE UPPER TEXAS COAST

CITY           SKY/WX    TMP DP  RH WIND       PRES   REMARKS
*ORANGE        SUNNY     84  72  66 E3        29.96F HX  90
PORT ARTHUR    MOSUNNY   82  73  74 SE3       29.93F
GALVESTON      MOSUNNY   85  73  67 E8        29.95F HX  91
ANGLETON       PTSUNNY   91  72  53 N8        29.94F HX  98
*BAY CITY      MOSUNNY   89  72  57 N6        29.94F HX  95
PALACIOS       MOSUNNY   85  76  74 S9        29.94F HX  94
$$

TXZ229>234-239>247-232000-
TEXAS COASTAL BEND AND RIO GRANDE PLAINS

CITY           SKY/WX    TMP DP  RH WIND       PRES   REMARKS
VICTORIA       MOSUNNY   90  69  50 NE8       29.95F HX  94
*BEEVILLE      NOT AVBL
ROCKPORT       SUNNY     86  75  69 SE8       29.93F HX  95
*PORT ARANSAS  SUNNY     84  75  76 E9        29.95F HX  92
*PORT LAVACA   PTSUNNY   88  71  56 N7        29.96  HX  94
*INGLESIDE     MOSUNNY   89  79  71 E10       29.92F HX 104
CORPUS CHRISTI MOSUNNY   88  73  62 VRB3      29.92F HX  96
CORPUS NAS     MOSUNNY   87  75  67 SE12      29.93F HX  96
*ROBSTOWN      MOSUNNY   89  71  54 CALM      29.92F HX  94
ALICE          MOSUNNY   92  69  47 VRB6      29.92F HX  97
KINGSVILLE NAS MOSUNNY   91  71  51 VRB5      29.91F HX  97
COTULLA        CLOUDY    90  69  50 NE10      29.96S HX  94
LAREDO         MOSUNNY   91  71  51 E5        29.91F HX  97
$$

TXZ248>255-232000-
DEEP SOUTH TEXAS

CITY           SKY/WX    TMP DP  RH WIND       PRES   REMARKS
BROWNSVILLE    MOSUNNY   93  72  50 NE7       29.89F HX 101
PORT ISABEL    SUNNY     86  76  71 E13       29.90F HX  96
HARLINGEN      SUNNY     91  72  53 VRB3      29.89F HX  98
*HEBBRONVILLE  PTSUNNY   87  67  51 E3        29.95F HX  90
MCALLEN        MOSUNNY   98  70  40 SE5       29.90F HX 105
*WESLACO       MOSUNNY   93  69  44 CALM      29.89F HX  98
FALFURRIAS     SUNNY     85  69  60 CALM      29.91F
EDINBURG       PTSUNNY   90  66  44 E6        29.90F HX  92
*ZAPATA        MOSUNNY   96  68  39 S7        29.92F HX 100
$$

TXZ213>215-236>238-242>244-246-247-251-254-255-232000-
CMAN STATIONS

STATION/POSITION TIME  TEMP    WIND        PRES    WAVE
                       AIR SEA DIR/SP/G            HT/PER
                 (UTC) (F)     (DEG/KT/KT) (MB)    (FT/S)
NORTH JETTY/GLS  1824   83 79   90/  9/ 10 1013.7
EAGLE POINT      1830   80 80   90/  5/  6 1014.1
MORGANS POINT    1830   85 81  160/  1/  5 1014.5
PORT O`CONNOR    1824   80 85  140/  5/  6 1013.8
PORT ARANSAS     1800   80 80   90/  9/ 10 1014.4
MALAQUITE BEACH  1824   86      50/  9/ 11   N/A
BAFFIN BAY       1824   81 84   70/  7/  9 1013.2
PORT ISABEL      1824   83 83   70/  9/ 11 1014.9
$$




USA.gov is the U.S. government's official web portal to all federal, state and local government web resources and services.